Orbital Elements at Epoch 2459200.5 (2020-Dec-17.0) TDB
Reference: JPL 14 (heliocentric ecliptic J2000)
Element | Value | Uncertainty (1-sigma) | Units |
e | .1612531843924838 | 3.1788e-08 | |
a | 2.443484901863837 | 9.4022e-09 | au |
q | 2.049465180423338 | 7.9019e-08 | au |
i | 2.039322891932007 | 3.7952e-06 | deg |
node | 213.1254933915505 | 0.00010399 | deg |
peri | 219.15146351 | 0.00010477 | deg |
M | 302.8068802828149 | 1.4703e-05 | deg |
tp | 2459422.143093294776 (2021-Jul-26.64309329) | 5.7612e-05 | TDB |
period | 1395.124343289562 3.82 | 8.0524e-06 2.205e-08 | d yr |
n | .2580415156050939 | 1.4894e-09 | deg/d |
Q | 2.837504623304337 | 1.0918e-08 | au |
|
| | Orbit Determination Parameters
Additional Information
|